Onweer radar Meer informatie blitzortung!


Regen radar Meer informatie rain snow radar


Bezoek onze andere website:

Template documentation
and downloads

And another site



Het weer levert geen direct gevaar op.    Er zijn geen waarschuwingen afgegeven.

Weather Underground Historische gegevens

Dagelijkse Samenvatting oktober 22, 2018 Eenheden:  Metrisch    Engels   Beide
« Vorige Dag
Volgende Dag »
Dagelijkse Wekelijkse Maandelijkse Jaarlijkse Aangepaste
  Huidig: Hoog: Laag: Gemiddeld:
Temperatuur: -9.8 °C -17.8 °C -10.9 °C -10.3 °C
Dauwpunt: -13.7 °C -17.8 °C -13.7 °C -11.8 °C
Vochtigheid: 63 % Humidity % 62 % 84 %
Wind snelheid: 10.3 km/h 0 km/h 0 km/h 6.3 km/h
Windvlaag: 31.1 km/h 0 km/h - -
Wind:North - - SW
Luchtdruk: 35014.6 hPa 0 hPa 34774.2 hPa -
Neerslag: 12.7 mm      
Historical Graphs
 
 
Tabel voor oktober 22, 2018
Tijd Temperatuur Dauwpunt Luchtdruk Wind Wind snelheid Windvlaag Vochtigheid Regenval per uur
-17.8 °C -17.8 °C 0 hPa Calm     Humidity % 0 mm
00:04 -10.4 °C -11.3 °C 34774.2 hPa Calm   5.1 km/h 90 % 0 mm
00:09 -10.3 °C -11.2 °C 34774.2 hPa Calm     90 % 0 mm
00:14 -10.2 °C -11.1 °C 34774.2 hPa Calm   5.1 km/h 90 % 0 mm
00:19 -10.2 °C -11.1 °C 34774.2 hPa Calm   5.1 km/h 90 % 0 mm
00:24 -10.2 °C -10.9 °C 34777.6 hPa Calm   7.7 km/h 91 % 0 mm
00:29 -10.1 °C -10.9 °C 34777.6 hPa Calm   7.7 km/h 91 % 0 mm
00:34 -10.1 °C -10.9 °C 34781 hPa Calm   5.1 km/h 91 % 0 mm
00:39 -10.2 °C -10.9 °C 34777.6 hPa Calm     91 % 0 mm
00:44 -10.1 °C -10.9 °C 34781 hPa Calm     91 % 0 mm
00:49 -10.1 °C -10.9 °C 34781 hPa Calm     91 % 0 mm
00:54 -10.1 °C -10.9 °C 34781 hPa Calm     91 % 0 mm
00:59 -10.1 °C -10.9 °C 34784.4 hPa Calm     91 % 0 mm
01:04 -10.1 °C -10.9 °C 34784.4 hPa Calm   7.7 km/h 91 % 0 mm
01:09 -10.1 °C -10.9 °C 34781 hPa Calm   7.7 km/h 91 % 0 mm
01:14 -10.1 °C -10.9 °C 34784.4 hPa Calm     91 % 0 mm
01:19 -10 °C -10.8 °C 34784.4 hPa Calm     91 % 0 mm
01:24 -9.9 °C -10.7 °C 34784.4 hPa Calm   2.6 km/h 91 % 0 mm
01:29 -9.9 °C -10.6 °C 34784.4 hPa Calm   5.1 km/h 92 % 0 mm
01:34 -9.8 °C -10.7 °C 34784.4 hPa Calm   5.1 km/h 91 % 0 mm
01:39 -9.8 °C -10.7 °C 34784.4 hPa Calm   5.1 km/h 91 % 0 mm
01:44 -9.8 °C -10.6 °C 34784.4 hPa Calm   5.1 km/h 91 % 0 mm
01:49 -9.7 °C -10.4 °C 34787.8 hPa NW 2.6 km/h 20.8 km/h 92 % 0 mm
01:54 -9.7 °C -10.4 °C 34787.8 hPa NNW 2.6 km/h 20.8 km/h 92 % 0 mm
01:59 -9.7 °C -10.4 °C 34787.8 hPa NW 2.6 km/h 15.6 km/h 92 % 0 mm
02:04 -9.7 °C -10.4 °C 34787.8 hPa NNW 5.1 km/h 20.8 km/h 92 % 0 mm
02:09 -9.7 °C -10.4 °C 34787.8 hPa NNW 5.1 km/h 20.8 km/h 92 % 0 mm
02:14 -9.7 °C -10.3 °C 34787.8 hPa North 2.6 km/h 15.6 km/h 93 % 0 mm
02:19 -9.7 °C -10.3 °C 34787.8 hPa North 2.6 km/h 10.3 km/h 93 % 0 mm
02:24 -9.8 °C -10.4 °C 34784.4 hPa North 2.6 km/h 10.3 km/h 93 % 0 mm
02:29 -9.8 °C -10.4 °C 34787.8 hPa Calm   7.7 km/h 93 % 0 mm
02:34 -9.8 °C -10.3 °C 34791.2 hPa Calm   7.7 km/h 94 % 0 mm
02:39 -9.8 °C -10.3 °C 34791.2 hPa Calm   5.1 km/h 94 % 0 mm
02:44 -9.8 °C -10.3 °C 34794.5 hPa North 2.6 km/h 10.3 km/h 94 % 0 mm
02:49 -9.8 °C -10.3 °C 34791.2 hPa NNW 2.6 km/h 23.3 km/h 94 % 0 mm
02:54 -9.9 °C -10.4 °C 34794.5 hPa North 10.3 km/h 31.1 km/h 94 % 0 mm
02:59 -9.9 °C -10.4 °C 34797.9 hPa North 12.9 km/h 31.1 km/h 94 % 0 mm
03:04 -10 °C -10.5 °C 34797.9 hPa North 10.3 km/h 31.1 km/h 94 % 0 mm
03:09 -10.1 °C -10.6 °C 34797.9 hPa North 7.7 km/h 25.9 km/h 94 % 0 mm
03:14 -10.1 °C -10.6 °C 34797.9 hPa North 7.7 km/h 25.9 km/h 94 % 0 mm
03:19 -10.1 °C -10.7 °C 34801.3 hPa North 5.1 km/h 20.8 km/h 94 % 0 mm
03:24 -10.1 °C -10.7 °C 34801.3 hPa North 7.7 km/h 28.5 km/h 94 % 0 mm
03:29 -10.1 °C -10.7 °C 34804.7 hPa North 7.7 km/h 28.5 km/h 94 % 0 mm
03:34 -10.2 °C -10.7 °C 34804.7 hPa North 10.3 km/h 25.9 km/h 94 % 0 mm
03:39 -10.2 °C -10.7 °C 34808.1 hPa North 10.3 km/h 25.9 km/h 94 % 0 mm
03:44 -10.2 °C -10.7 °C 34808.1 hPa North 10.3 km/h 31.1 km/h 94 % 0 mm
03:49 -10.2 °C -10.8 °C 34811.5 hPa North 7.7 km/h 31.1 km/h 93 % 0 mm
03:54 -10.2 °C -10.8 °C 34814.9 hPa North 10.3 km/h 36.2 km/h 93 % 0 mm
03:59 -10.2 °C -10.8 °C 34814.9 hPa North 12.9 km/h 36.2 km/h 93 % 0 mm
04:04 -10.2 °C -10.8 °C 34818.2 hPa North 10.3 km/h 28.5 km/h 93 % 0 mm
04:09 -10.3 °C -10.9 °C 34818.2 hPa North 7.7 km/h 28.5 km/h 93 % 0 mm
04:14 -10.4 °C -11 °C 34814.9 hPa North 7.7 km/h 28.5 km/h 93 % 0 mm
04:19 -10.4 °C -11.1 °C 34818.2 hPa North 10.3 km/h 23.3 km/h 93 % 0 mm
04:24 -10.4 °C -11.1 °C 34818.2 hPa North 10.3 km/h 23.3 km/h 93 % 0 mm
04:29 -10.4 °C -11.1 °C 34821.6 hPa North 7.7 km/h 23.3 km/h 93 % 0 mm
04:34 -10.4 °C -11.1 °C 34825 hPa North 5.1 km/h 18.2 km/h 93 % 0 mm
04:39 -10.4 °C -11.1 °C 34828.4 hPa North 5.1 km/h 18.2 km/h 93 % 0 mm
04:44 -10.4 °C -11.1 °C 34828.4 hPa North 5.1 km/h 25.9 km/h 93 % 0 mm
04:49 -10.4 °C -11.1 °C 34831.8 hPa North 5.1 km/h 25.9 km/h 93 % 0 mm
04:54 -10.5 °C -11.1 °C 34831.8 hPa North 5.1 km/h 23.3 km/h 93 % 0 mm
04:59 -10.5 °C -11.1 °C 34835.2 hPa North 5.1 km/h 23.3 km/h 93 % 0 mm
05:04 -10.5 °C -11.1 °C 34835.2 hPa North 5.1 km/h 18.2 km/h 93 % 0 mm
05:09 -10.5 °C -11 °C 34835.2 hPa North 5.1 km/h 18.2 km/h 94 % 0 mm
05:14 -10.5 °C -11 °C 34835.2 hPa North 5.1 km/h 20.8 km/h 94 % 0 mm
05:19 -10.6 °C -11.1 °C 34838.6 hPa North 7.7 km/h 20.8 km/h 94 % 0 mm
05:24 -10.6 °C -11.1 °C 34838.6 hPa North 7.7 km/h 20.8 km/h 94 % 0 mm
05:29 -10.6 °C -11.2 °C 34838.6 hPa North 7.7 km/h 23.3 km/h 94 % 0 mm
05:34 -10.6 °C -11.2 °C 34841.9 hPa North 5.1 km/h 23.3 km/h 94 % 0 mm
05:39 -10.6 °C -11.2 °C 34841.9 hPa North 5.1 km/h 28.5 km/h 94 % 0 mm
05:44 -10.6 °C -11.2 °C 34845.3 hPa North 5.1 km/h 28.5 km/h 94 % 0 mm
05:49 -10.6 °C -11.2 °C 34841.9 hPa North 5.1 km/h 15.6 km/h 94 % 0 mm
05:54 -10.6 °C -11.2 °C 34845.3 hPa North 2.6 km/h 15.6 km/h 94 % 0 mm
05:59 -10.6 °C -11.1 °C 34848.7 hPa North 2.6 km/h 12.9 km/h 94 % 0 mm
06:04 -10.6 °C -11.1 °C 34852.1 hPa North 2.6 km/h 12.9 km/h 94 % 0 mm
06:09 -10.6 °C -11.1 °C 34852.1 hPa NNE 5.1 km/h 23.3 km/h 94 % 0 mm
06:14 -10.6 °C -11.1 °C 34855.5 hPa North 5.1 km/h 23.3 km/h 94 % 0 mm
06:19 -10.6 °C -11.1 °C 34855.5 hPa North 5.1 km/h 23.3 km/h 94 % 0 mm
06:24 -10.6 °C -11.1 °C 34858.9 hPa North 5.1 km/h 23.3 km/h 94 % 0 mm
06:29 -10.6 °C -11.2 °C 34862.3 hPa NNW 5.1 km/h 20.8 km/h 94 % 7.62 mm
06:34 -10.6 °C -11.2 °C 34862.3 hPa NNW 5.1 km/h 25.9 km/h 94 % 7.62 mm
06:39 -10.7 °C -11.2 °C 34865.6 hPa North 5.1 km/h 25.9 km/h 94 % 7.62 mm
06:44 -10.7 °C -11.2 °C 34865.6 hPa North 7.7 km/h 20.8 km/h 94 % 7.62 mm
06:49 -10.7 °C -11.2 °C 34865.6 hPa North 7.7 km/h 28.5 km/h 94 % 7.62 mm
06:54 -10.7 °C -11.2 °C 34869 hPa North 5.1 km/h 28.5 km/h 94 % 7.62 mm
06:59 -10.8 °C -11.3 °C 34872.4 hPa North 7.7 km/h 25.9 km/h 94 % 7.62 mm
07:04 -10.9 °C -11.4 °C 34875.8 hPa North 10.3 km/h 28.5 km/h 94 % 7.62 mm
07:09 -10.9 °C -11.4 °C 34875.8 hPa North 10.3 km/h 28.5 km/h 94 % 7.62 mm
07:14 -10.9 °C -11.4 °C 34879.2 hPa North 7.7 km/h 25.9 km/h 94 % 7.62 mm
07:19 -10.9 °C -11.6 °C 34879.2 hPa North 7.7 km/h 25.9 km/h 93 % 7.62 mm
07:24 -10.9 °C -11.5 °C 34882.6 hPa North 7.7 km/h 31.1 km/h 93 % 7.62 mm
07:29 -10.9 °C -11.6 °C 34882.6 hPa North 7.7 km/h 31.1 km/h 92 % 0 mm
07:34 -10.8 °C -11.6 °C 34886 hPa North 7.7 km/h 28.5 km/h 91 % 0 mm
07:39 -10.8 °C -11.7 °C 34889.3 hPa North 7.7 km/h 25.9 km/h 90 % 0 mm
07:44 -10.8 °C -11.8 °C 34892.7 hPa North 10.3 km/h 25.9 km/h 88 % 0 mm
07:49 -10.7 °C -12 °C 34892.7 hPa North 10.3 km/h 28.5 km/h 86 % 0 mm
07:54 -10.7 °C -12.1 °C 34896.1 hPa North 10.3 km/h 31.1 km/h 85 % 0 mm
07:59 -10.7 °C -12.1 °C 34896.1 hPa North 5.1 km/h 31.1 km/h 84 % 0 mm
08:04 -10.7 °C -12.2 °C 34899.5 hPa North 5.1 km/h 23.3 km/h 83 % 0 mm
08:09 -10.7 °C -12.3 °C 34902.9 hPa North 5.1 km/h 23.3 km/h 82 % 0 mm
08:14 -10.7 °C -12.3 °C 34906.3 hPa North 7.7 km/h 25.9 km/h 82 % 0 mm
08:19 -10.7 °C -12.4 °C 34909.7 hPa North 7.7 km/h 25.9 km/h 81 % 0 mm
08:24 -10.7 °C -12.4 °C 34909.7 hPa North 5.1 km/h 20.8 km/h 81 % 0 mm
08:29 -10.7 °C -12.4 °C 34913 hPa North 5.1 km/h 20.8 km/h 81 % 0 mm
08:34 -10.7 °C -12.4 °C 34919.8 hPa North 7.7 km/h 20.8 km/h 81 % 0 mm
08:39 -10.7 °C -12.6 °C 34919.8 hPa North 7.7 km/h 20.8 km/h 80 % 0 mm
08:44 -10.6 °C -12.6 °C 34926.6 hPa North 7.7 km/h 25.9 km/h 79 % 0 mm
08:49 -10.6 °C -12.6 °C 34926.6 hPa North 7.7 km/h 25.9 km/h 79 % 0 mm
08:54 -10.7 °C -12.7 °C 34930 hPa North 5.1 km/h 18.2 km/h 79 % 0 mm
08:59 -10.6 °C -12.6 °C 34933.4 hPa North 5.1 km/h 18.2 km/h 79 % 0 mm
09:04 -10.6 °C -12.7 °C 34936.7 hPa North 5.1 km/h 18.2 km/h 78 % 0 mm
09:09 -10.6 °C -12.7 °C 34936.7 hPa North 5.1 km/h 23.3 km/h 78 % 0 mm
09:14 -10.6 °C -12.7 °C 34943.5 hPa North 5.1 km/h 23.3 km/h 78 % 0 mm
09:19 -10.6 °C -12.7 °C 34946.9 hPa North 5.1 km/h 15.6 km/h 78 % 0 mm
09:24 -10.6 °C -12.8 °C 34950.3 hPa North 5.1 km/h 20.8 km/h 77 % 0 mm
09:29 -10.6 °C -12.9 °C 34950.3 hPa North 5.1 km/h 20.8 km/h 76 % 0 mm
09:34 -10.6 °C -13 °C 34953.7 hPa North 7.7 km/h 25.9 km/h 75 % 0 mm
09:39 -10.6 °C -13 °C 34957.1 hPa North 5.1 km/h 25.9 km/h 75 % 0 mm
09:44 -10.6 °C -12.8 °C 34957.1 hPa North 5.1 km/h 15.6 km/h 76 % 0 mm
09:49 -10.4 °C -12.6 °C 34957.1 hPa North 2.6 km/h 15.6 km/h 77 % 0 mm
09:54 -10.4 °C -12.7 °C 34960.5 hPa North 2.6 km/h 18.2 km/h 76 % 0 mm
09:59 -10.4 °C -12.7 °C 34963.8 hPa North 5.1 km/h 18.2 km/h 76 % 0 mm
10:04 -10.5 °C -12.7 °C 34970.6 hPa North 5.1 km/h 18.2 km/h 77 % 0 mm
10:09 -10.4 °C -12.6 °C 34970.6 hPa North 5.1 km/h 18.2 km/h 77 % 0 mm
10:14 -10.4 °C -12.7 °C 34974 hPa North 5.1 km/h 28.5 km/h 76 % 0 mm
10:19 -10.4 °C -12.7 °C 34977.4 hPa North 7.7 km/h 28.5 km/h 76 % 0 mm
10:24 -10.4 °C -13 °C 34977.4 hPa North 7.7 km/h 28.5 km/h 73 % 0 mm
10:29 -10.4 °C -13.2 °C 34984.2 hPa North 10.3 km/h 28.5 km/h 72 % 0 mm
10:34 -10.3 °C -13.1 °C 34987.5 hPa North 7.7 km/h 28.5 km/h 72 % 0 mm
10:39 -10.2 °C -13 °C 34987.5 hPa North 7.7 km/h 28.5 km/h 71 % 0 mm
10:44 -10.1 °C -13.1 °C 34987.5 hPa North 7.7 km/h 28.5 km/h 70 % 0 mm
10:49 -10.1 °C -13 °C 34990.9 hPa North 10.3 km/h 28.5 km/h 71 % 0 mm
10:54 -10.1 °C -12.9 °C 34990.9 hPa North 7.7 km/h 28.5 km/h 71 % 0 mm
10:59 -9.9 °C -12.8 °C 34994.3 hPa North 10.3 km/h 44.1 km/h 71 % 0 mm
11:04 -9.8 °C -13.1 °C 34994.3 hPa North 12.9 km/h 44.1 km/h 68 % 0 mm
11:09 -9.7 °C -13.1 °C 34994.3 hPa NNE 12.9 km/h 38.8 km/h 67 % 7.62 mm
11:14 -9.6 °C -13.1 °C 34994.3 hPa North 10.3 km/h 25.9 km/h 66 % 7.62 mm
11:19 -9.6 °C -13.1 °C 34997.7 hPa North 10.3 km/h 28.5 km/h 66 % 7.62 mm
11:24 -9.6 °C -13.2 °C 34994.3 hPa North 10.3 km/h 28.5 km/h 65 % 7.62 mm
11:29 -9.6 °C -13.2 °C 34997.7 hPa North 7.7 km/h 28.5 km/h 65 % 7.62 mm
11:34 -9.5 °C -13.2 °C 35001.1 hPa NNW 7.7 km/h 28.5 km/h 64 % 7.62 mm
11:39 -9.6 °C -13.1 °C 35001.1 hPa North 10.3 km/h 23.3 km/h 66 % 7.62 mm
11:44 -9.8 °C -13.2 °C 35004.5 hPa North 10.3 km/h 33.6 km/h 67 % 7.62 mm
11:49 -9.9 °C -13.2 °C 35004.5 hPa North 12.9 km/h 33.6 km/h 68 % 7.62 mm
11:54 -10.1 °C -13.3 °C 35004.5 hPa North 12.9 km/h 33.6 km/h 68 % 7.62 mm
11:59 -10.1 °C -13.3 °C 35004.5 hPa North 12.9 km/h 33.6 km/h 68 % 7.62 mm
12:04 -10.1 °C -13.3 °C 35007.9 hPa North 12.9 km/h 28.5 km/h 68 % 7.62 mm
12:09 -9.9 °C -13.4 °C 35007.9 hPa North 12.9 km/h 28.5 km/h 66 % 0 mm
12:14 -9.8 °C -13.4 °C 35007.9 hPa North 12.9 km/h 28.5 km/h 65 % 0 mm
12:19 -9.8 °C -13.6 °C 35007.9 hPa North 10.3 km/h 28.5 km/h 64 % 0 mm
12:24 -9.8 °C -13.4 °C 35007.9 hPa North 10.3 km/h 31.1 km/h 65 % 0 mm
12:29 -9.8 °C -13.3 °C 35007.9 hPa NNW 10.3 km/h 31.1 km/h 66 % 0 mm
12:34 -9.7 °C -13.3 °C 35011.2 hPa North 10.3 km/h 28.5 km/h 65 % 0 mm
12:39 -9.6 °C -13.3 °C 35014.6 hPa North 12.9 km/h 28.5 km/h 64 % 0 mm
12:44 -9.6 °C -13.6 °C 35014.6 hPa North 12.9 km/h 33.6 km/h 62 % 0 mm
12:49 -9.7 °C -13.4 °C 35014.6 hPa North 12.9 km/h 33.6 km/h 64 % 0 mm
12:54 -9.8 °C -13.7 °C 35014.6 hPa North 10.3 km/h 25.9 km/h 63 % 0 mm
12:59 -9.9 °C -13.6 °C 35014.6 hPa North 10.3 km/h 25.9 km/h 64 % 0 mm
13:04 -9.8 °C -13.7 °C 35014.6 hPa North 10.3 km/h 31.1 km/h 63 % 0 mm
Vlaardingen meteo3131
Gegevens verzameld door Weather Underground - 2.25 mb

Script ontwikkeld door  Jim McMurry - jmcmurry@mwt.net Aangepast voor de template door  Wim van der Kuil - Leuven-Template.eu

U vindt ons ook hier:

Het Weer Aktueel

European Weather Network

Weather Underground

WeatherlinkIP

HAMweather, WeatherForYou, PWS Weather

Apparatuur in gebruik:

Weerstation
Davis VP2

Weerprogramma
Cumulus

Weercomputer
Zotac

Webleverancier
Quick Servers

Davis VP2

Cumulus

Zotac

Quick Servers